User: anonymous
Location: Caltech
(34.1382°N, 118.1253°W)
Time: 13:52:42
(UTC-07:00)
Language:

Cosmos 1975 - Orbit

View from above orbital plane
View from above orbital plane
View from above satellite
View from above satellite

Ground track
Ground track

The orbit data is extracted from the following two-line orbital elements,

1 19573U 88093A   14209.77728106  .00001264  00000-0  98014-4 0  2607
2 19573 082.5223 283.6575 0014118 281.7628 078.2012 15.00515367401439
Epoch (UTC): 28 July 2014 18:39:17
Eccentricity: 0.0014118
inclination: 82.5223°
perigee height: 555 km
apogee height: 575 km
right ascension of ascending node: 283.6575°
argument of perigee: 281.7628°
revolutions per day: 15.00515367
mean anomaly at epoch: 78.2012°
orbit number at epoch: 40143

The dashed part of the orbit path shows where the satellite is in the earth's shadow,  

DLR